GEFSSE_con_cape1000_294.txt.gz
Probability
6 26 61 52 65 71 68 65 68 71 74 61 68 65 61 65 61 58 52 55 61 58 65 61 71 61 58 65 58 61 61 58 65 55 48 52 52 58 55 58 52 35 48
10 29 58 52 61 74 71 58 55 55 68 61 65 61 61 61 61 61 55 55 65 68 61 68 65 65 61 61 55 58 52 52 52 55 42 39 48 58 52 55 35 32 48
19 26 48 58 65 68 68 61 61 61 61 65 65 65 71 65 65 68 55 58 58 55 65 65 71 65 65 61 42 45 42 45 52 42 32 26 26 42 45 55 42 48 42
16 19 32 68 65 65 61 61 58 55 61 65 71 65 65 68 58 61 61 58 55 55 55 58 48 52 55 48 42 42 35 42 45 26 19 10 13 35 42 48 42 48 45
6 16 42 61 71 77 68 71 68 58 61 65 65 61 55 55 58 48 55 52 48 48 52 45 45 42 42 39 39 35 35 29 35 23 6 3 10 29 42 42 52 42 45
10 23 45 65 68 74 74 74 74 65 68 61 65 55 58 52 45 52 58 45 45 42 45 39 39 42 39 39 32 39 35 32 26 10 10 6 13 32 45 35 45 48 45
6 23 42 65 68 68 71 68 65 68 68 68 61 55 52 48 45 52 55 45 45 39 35 35 26 32 29 39 35 42 39 35 19 10 6 6 13 35 48 45 45 45 45
13 19 42 74 68 71 65 74 68 65 74 74 55 55 55 48 48 48 48 39 39 35 26 23 26 32 35 39 45 39 45 45 23 6 13 6 16 48 52 52 42 42 48
10 6 19 45 45 68 65 65 65 65 71 55 52 48 55 52 45 48 45 42 42 35 35 39 39 39 39 45 48 45 42 52 16 13 13 13 39 48 48 52 48 45 48
10 6 10 10 16 26 39 61 68 65 58 55 65 58 61 55 52 48 52 55 39 32 32 32 32 32 39 48 48 55 55 39 19 13 13 19 39 55 52 45 45 48 52
6 10 6 6 6 10 13 45 48 48 52 45 52 61 42 26 23 29 42 45 39 52 45 39 39 45 45 48 52 52 52 23 13 13 6 26 48 58 55 48 55 52 58
3 6 6 6 6 6 13 13 10 16 23 19 26 32 13 10 3 19 39 52 58 55 52 52 52 52 45 23 26 35 23 16 16 10 13 42 65 65 55 55 52 48 48
6 10 6 10 10 6 10 13 6 6 10 6 6 6 6 6 3 0 3 26 29 32 13 19 29 23 13 10 6 10 13 13 13 10 16 61 68 71 55 52 48 52 52
10 10 6 10 10 10 13 10 10 0 6 3 6 0 3 0 0 0 0 3 0 0 6 3 6 10 13 10 10 13 6 10 6 6 13 52 61 68 65 58 58 52 52
10 10 6 10 10 6 10 6 6 6 10 6 3 6 3 0 0 0 3 3 3 3 6 10 6 13 16 10 13 13 6 6 10 10 13 52 65 65 61 58 55 55 55
10 10 6 13 13 10 13 6 3 3 6 6 3 6 6 0 0 3 10 10 6 10 6 3 10 10 6 16 16 13 10 6 6 10 10 19 48 55 55 65 61 52 52
6 6 3 13 10 10 10 6 3 6 3 3 0 6 0 0 0 0 10 13 10 10 6 10 3 10 19 16 13 13 13 6 6 10 10 10 13 48 65 65 65 58 55
6 6 6 16 10 6 10 6 10 6 3 0 0 3 6 6 0 6 13 13 6 10 10 10 10 10 16 13 10 10 6 6 6 3 3 6 13 16 39 61 65 61 61
3 0 0 6 10 10 10 13 13 10 10 6 3 0 0 3 10 13 16 13 13 13 16 19 10 10 16 13 6 3 3 0 3 3 3 6 10 13 13 32 58 58 58
0 0 10 10 10 6 10 16 13 10 10 13 6 3 3 6 10 10 16 16 16 23 16 16 13 10 6 6 3 0 0 0 3 0 0 3 3 3 3 16 26 42 52
6 6 3 10 6 6 13 16 10 10 10 13 6 6 16 10 16 16 26 23 19 19 16 13 13 10 6 6 0 0 0 0 0 0 0 3 6 3 3 6 3 10 13
13 10 10 13 10 10 10 10 13 13 13 10 10 10 13 19 16 23 19 23 26 16 13 10 10 13 6 6 3 0 0 0 0 3 0 0 0 0 10 13 3 3 6
6 6 13 13 13 13 13 13 23 16 16 19 19 13 19 23 19 19 19 16 19 23 16 10 13 13 10 10 6 6 3 0 0 0 0 0 3 6 6 6 10 6 3
13 10 6 13 16 16 16 16 16 13 13 13 16 13 19 23 19 16 16 16 16 19 16 16 16 16 13 16 13 10 10 3 3 3 3 0 6 10 10 6 10 6 3
16 16 13 19 23 16 19 13 13 13 16 16 19 19 23 26 23 19 19 16 19 19 16 19 19 13 16 13 13 16 16 13 6 13 10 6 13 10 10 6 6 6 6
19 29 32 26 29 23 26 23 19 19 16 23 23 23 26 29 26 26 32 23 23 19 13 16 16 13 16 23 13 13 16 16 19 13 16 13 13 13 10 10 3 3 6

GEFSSE_con_cape1000_300.txt.gz
Probability
0 10 29 45 45 52 61 61 61 68 61 61 65 65 65 61 58 61 65 61 48 48 58 71 71 71 65 61 68 71 61 55 45 42 39 42 52 55 55 52 39 35 58
0 19 45 48 55 55 58 52 55 65 61 65 65 61 68 61 61 58 55 58 52 48 52 65 65 68 65 55 61 61 61 48 45 39 35 35 42 48 48 45 39 35 58
0 16 39 52 55 55 55 55 52 58 55 58 61 58 65 65 68 65 61 55 48 52 58 58 55 74 68 58 58 61 52 45 45 35 32 29 35 48 42 45 35 45 55
3 6 26 52 58 55 58 55 55 55 55 55 48 55 58 61 61 65 55 55 52 52 55 65 65 61 65 61 55 48 42 42 35 29 16 16 16 39 45 39 39 39 58
3 6 29 61 65 58 58 58 55 55 58 61 58 55 55 55 55 52 52 45 45 48 45 58 48 45 55 58 45 45 39 39 32 23 16 13 13 26 32 39 39 39 48
0 13 35 71 68 68 68 71 68 65 65 58 65 58 58 61 61 52 52 48 48 42 42 42 39 48 52 48 48 42 39 35 23 19 19 10 10 23 39 39 42 39 45
3 13 32 61 71 74 71 74 74 68 61 65 65 65 58 58 58 55 39 48 45 35 39 45 42 39 35 42 45 42 48 29 23 19 16 10 16 26 42 42 39 42 42
3 16 32 52 71 74 81 77 71 65 61 58 65 65 55 58 58 52 48 45 48 39 39 39 32 29 35 45 52 52 48 29 23 19 16 19 26 35 45 39 48 45 45
6 13 16 32 42 48 61 65 65 61 58 58 58 55 65 61 55 52 55 52 48 39 45 35 29 29 35 42 52 52 48 39 16 16 16 19 35 39 42 39 45 45 42
0 3 3 6 13 23 29 48 55 48 52 52 58 58 52 45 45 45 55 52 45 45 42 39 32 29 35 48 45 48 52 42 19 23 13 23 42 35 32 42 45 52 48
3 0 0 3 3 6 10 29 26 35 35 39 26 45 35 6 10 23 35 55 52 45 45 45 32 42 42 45 48 48 45 19 16 19 23 32 48 39 42 45 52 48 55
6 3 0 3 3 3 6 6 10 13 10 10 10 13 6 3 6 19 32 48 45 48 45 45 42 35 29 23 26 39 23 13 13 16 26 39 39 35 45 48 55 52 55
6 3 0 0 3 3 3 3 3 3 0 0 0 3 0 0 0 0 0 10 3 6 3 10 10 13 13 19 19 16 16 10 10 16 23 42 48 48 52 52 58 55 55
3 3 0 0 0 0 3 3 0 0 0 0 0 0 0 0 0 0 0 0 0 0 3 3 3 6 16 6 10 10 13 6 6 13 16 45 58 52 55 55 61 55 55
3 0 0 0 0 0 0 0 0 0 0 0 0 0 0 0 0 0 0 0 0 0 3 3 3 3 10 10 13 10 16 10 10 10 16 32 65 65 55 55 52 52 48
0 0 0 0 0 0 0 0 0 0 0 0 0 0 0 0 0 0 0 0 3 3 3 3 3 6 10 13 13 13 13 19 13 10 13 13 35 61 58 48 45 52 55
0 0 0 0 0 3 3 0 0 0 0 0 0 0 0 0 0 0 3 3 3 3 6 6 3 10 10 13 13 16 16 16 10 6 6 6 10 29 45 55 55 55 58
0 0 0 3 3 3 0 0 0 0 0 0 0 0 0 0 0 3 3 3 3 0 3 3 6 6 10 6 6 6 6 13 6 3 3 6 10 10 26 55 48 45 52
3 0 0 3 3 0 0 0 0 0 0 0 0 0 0 0 3 3 3 6 3 3 6 6 10 6 6 6 6 3 0 3 0 0 6 6 10 6 6 13 42 48 42
3 0 0 0 0 0 0 0 0 0 0 0 0 0 3 0 3 3 6 10 10 10 10 10 10 10 10 10 3 0 0 0 0 3 3 3 3 6 10 10 13 29 39
3 0 0 0 0 0 0 0 3 0 0 3 3 3 3 10 10 3 10 3 13 13 13 13 10 10 6 6 0 3 0 0 0 3 3 6 6 6 10 13 13 13 19
3 0 0 0 0 0 0 0 0 0 3 3 6 10 10 13 16 13 10 10 13 13 10 10 10 10 6 6 6 6 6 6 6 3 3 6 3 6 10 10 13 13 10
3 0 0 0 0 0 0 0 6 6 6 6 10 10 10 13 13 13 10 10 13 13 13 13 13 13 13 6 6 6 6 13 10 10 10 6 6 3 6 6 13 13 6
3 0 3 0 0 0 0 0 6 6 10 10 10 10 10 10 10 13 13 13 10 10 10 10 13 13 10 10 6 6 6 6 13 13 13 13 13 13 10 6 10 10 10
3 3 3 3 0 0 3 3 6 6 10 6 10 10 6 6 6 10 10 10 10 10 10 6 10 13 10 10 10 10 13 6 6 13 13 13 13 16 13 13 16 10 13
3 10 6 3 0 3 3 6 6 6 3 13 10 10 6 6 3 3 10 10 10 10 10 6 10 13 10 6 6 10 16 16 16 13 13 13 13 13 13 13 13 16 13

GEFSSE_con_cape1000_306.txt.gz
Probability
13 19 42 42 42 52 55 55 52 55 58 58 58 55 58 61 52 52 48 52 52 42 55 58 58 71 65 65 65 58 52 42 39 35 35 39 35 42 48 45 42 16 52
10 10 45 42 45 55 55 55 52 55 52 52 55 55 52 48 55 55 52 52 42 39 52 58 55 65 68 61 52 52 42 48 45 42 42 35 35 42 42 35 45 32 55
13 16 19 48 55 52 55 52 55 48 42 52 58 58 55 48 55 55 52 55 52 45 52 48 58 61 55 55 45 39 42 45 45 35 39 13 23 48 42 39 35 45 52
10 16 16 58 65 65 61 61 71 48 55 58 58 65 61 55 58 61 55 58 52 52 52 45 55 61 55 52 48 42 42 42 42 39 16 10 13 29 45 39 35 42 48
10 26 32 61 61 65 71 71 68 68 61 58 55 55 58 61 52 58 52 48 45 55 45 45 52 52 55 48 45 45 35 39 35 32 23 16 16 29 39 35 39 42 45
10 13 32 58 68 68 65 71 71 68 68 58 55 55 55 52 45 45 52 48 48 52 42 48 48 45 52 42 39 39 42 39 29 19 23 23 23 29 39 29 35 45 48
13 19 32 48 65 71 61 65 68 71 71 65 61 58 58 55 45 45 55 55 52 48 45 45 42 39 45 32 39 42 42 39 16 19 19 23 29 32 35 39 42 39 39
19 19 35 45 58 58 61 65 61 65 65 71 58 61 68 61 55 48 39 45 42 42 39 35 42 35 35 45 48 42 42 32 6 6 16 19 35 48 45 45 48 45 42
16 23 35 42 45 48 58 48 52 55 58 58 58 52 55 52 52 48 45 42 42 35 42 35 39 45 42 48 45 39 35 32 10 13 10 16 39 42 42 39 39 42 39
19 19 26 29 29 32 29 39 45 42 48 52 52 45 52 45 52 42 45 42 45 42 35 32 26 35 42 42 35 29 29 29 13 13 13 19 42 35 32 35 32 32 45
13 19 23 19 23 19 13 29 39 42 42 45 45 32 32 35 26 32 35 45 45 39 32 29 29 29 35 35 35 35 29 19 10 19 23 32 39 35 32 45 42 35 52
13 23 26 23 19 13 13 23 26 16 32 32 42 23 29 29 26 10 26 39 35 29 35 29 35 42 32 26 35 35 29 23 19 16 26 45 39 39 35 45 45 39 42
19 16 23 26 29 23 16 13 16 16 35 19 23 23 29 19 10 16 26 39 42 32 39 32 26 23 19 29 29 29 29 29 32 23 32 48 42 42 42 39 42 42 48
16 16 19 23 29 32 16 13 10 10 10 10 26 23 26 23 29 29 29 23 26 35 39 39 42 35 35 39 29 32 29 29 29 32 58 55 48 48 48 52 52 48 42
13 13 19 29 32 26 32 23 10 16 3 6 29 26 26 19 32 29 42 39 35 35 35 35 39 32 39 29 29 35 35 39 35 35 52 58 48 58 52 48 39 39 45
19 16 23 19 26 29 35 32 19 16 29 10 13 29 35 29 32 32 42 45 42 39 42 42 32 32 29 29 35 32 45 39 45 48 45 48 52 55 48 48 52 45 48
23 23 19 23 26 35 32 26 19 19 10 16 19 35 35 35 39 39 29 35 42 35 35 42 35 32 39 32 32 29 32 45 42 42 39 39 32 35 45 48 48 48 45
26 26 23 10 23 39 39 42 29 23 19 26 32 29 39 35 39 39 35 35 35 32 32 42 32 29 26 29 35 35 32 42 39 39 39 35 35 35 42 45 39 48 45
29 39 39 16 19 32 39 35 35 39 32 29 39 39 45 48 48 52 42 39 35 35 29 32 32 29 35 35 29 39 35 35 45 32 29 35 39 45 39 48 48 45 45
35 45 42 42 52 45 39 39 42 42 35 35 42 42 45 52 48 52 45 45 39 39 45 55 48 55 45 39 23 26 29 29 42 39 35 26 35 42 39 39 52 48 42
39 52 52 48 58 58 48 39 39 32 29 39 32 32 42 52 48 48 45 48 48 45 48 48 52 48 48 39 26 29 32 26 32 32 29 19 19 23 23 35 42 42 45
42 52 52 55 58 55 55 55 42 48 32 26 35 42 39 42 45 39 52 45 45 55 55 55 55 48 35 48 35 29 29 42 32 16 39 35 26 23 23 23 32 52 48
39 55 45 52 58 55 58 45 39 42 48 35 32 39 45 42 45 45 52 52 48 39 39 52 55 48 45 48 45 35 26 19 35 32 35 35 39 48 42 32 32 45 52
35 42 52 58 58 58 55 48 39 48 32 35 42 39 48 48 45 42 42 52 48 39 48 42 35 45 52 39 45 45 39 29 26 32 35 35 35 45 45 35 26 35 42
32 29 52 61 61 58 55 55 61 39 42 39 42 48 45 45 42 35 39 42 48 48 48 48 52 52 52 42 42 39 42 42 29 35 35 35 32 32 42 42 42 32 42
32 32 42 61 71 71 58 52 58 48 52 45 52 48 48 48 42 42 39 45 39 45 52 55 55 55 55 52 52 39 39 39 26 26 32 39 39 32 35 39 35 35 32

GEFSSE_con_cape1000_312.txt.gz
Probability
19 35 68 65 55 58 58 52 58 55 55 52 48 52 52 48 48 48 48 48 58 61 55 58 55 52 55 61 55 52 48 45 45 45 45 35 39 45 52 35 29 23 52
26 35 65 68 68 71 52 55 61 61 58 48 45 52 48 48 39 48 45 39 39 52 52 48 58 55 58 55 52 42 39 42 39 45 35 35 42 52 48 42 35 32 58
19 29 45 65 68 65 68 61 61 61 55 48 52 48 42 39 39 48 45 42 48 52 48 55 48 45 48 55 52 52 42 42 48 45 42 16 32 39 42 39 48 48 58
13 29 29 68 68 61 68 61 61 61 61 58 55 52 45 45 48 55 58 48 52 52 48 39 39 39 42 48 48 48 52 45 48 48 23 13 10 35 42 42 45 52 52
16 29 42 71 61 68 71 68 71 65 61 61 61 58 58 55 52 48 48 45 45 48 42 32 39 39 42 45 48 42 39 45 42 29 26 19 19 45 45 45 39 35 39
19 29 42 71 58 65 65 65 65 68 61 61 61 58 58 52 48 48 52 48 48 39 39 32 35 35 26 23 35 39 39 42 35 23 23 16 23 45 39 39 39 35 42
23 35 42 68 65 55 52 61 65 65 61 55 58 52 52 55 55 45 52 48 45 35 32 29 23 32 29 26 32 35 35 39 32 19 23 19 26 45 45 42 35 35 45
16 32 42 65 61 61 58 55 58 65 65 61 58 55 55 61 61 48 45 45 39 39 35 32 29 29 42 39 39 39 39 35 19 10 26 26 39 48 45 45 48 45 45
13 29 39 39 55 58 55 55 52 65 61 52 45 48 55 48 55 52 48 48 52 45 32 32 32 26 29 26 35 42 42 48 35 16 13 26 45 45 42 45 45 42 45
26 26 35 35 39 42 42 42 48 58 52 48 45 48 55 55 42 48 48 52 39 42 35 35 29 23 29 26 39 42 42 42 19 16 13 23 48 39 39 42 42 45 45
26 29 32 39 29 23 13 23 45 52 35 45 42 55 52 35 26 45 42 52 39 35 32 29 32 32 35 35 39 48 48 26 6 13 19 35 45 39 32 39 45 42 39
23 26 26 32 23 23 13 35 35 19 35 45 48 52 48 52 42 26 32 45 39 39 35 42 48 52 48 35 45 48 23 16 6 13 19 61 52 35 26 29 35 42 35
19 16 23 29 39 19 32 26 35 39 61 45 42 48 48 45 42 32 39 42 52 52 52 52 42 35 35 42 45 35 32 19 19 10 19 58 48 42 39 35 35 35 48
23 23 26 29 39 52 45 26 35 32 45 32 48 52 45 58 55 52 48 48 45 52 58 48 52 45 45 42 42 39 32 35 26 26 35 61 52 42 39 42 48 48 52
29 32 32 45 48 55 61 61 26 39 35 45 55 55 58 55 61 52 61 65 48 48 52 52 48 45 42 45 42 35 45 39 35 39 29 52 52 48 39 35 39 45 42
19 29 35 42 55 48 48 48 52 35 61 45 55 58 55 58 58 61 58 61 52 55 52 58 52 55 52 52 52 48 42 52 45 45 32 42 55 52 45 39 42 42 42
26 35 42 45 55 55 52 52 42 35 29 48 55 61 55 58 58 58 52 52 52 52 55 55 52 52 52 45 45 45 45 48 48 52 45 32 32 39 48 52 52 48 45
32 45 39 29 48 52 55 61 55 32 48 52 52 55 48 52 55 61 52 52 55 52 61 61 65 55 58 52 42 35 35 42 42 42 48 45 35 29 42 52 48 52 45
45 52 55 61 52 48 48 55 58 65 65 55 58 52 52 48 45 52 52 52 55 58 65 55 58 58 58 58 42 42 45 42 39 32 39 45 42 48 42 45 55 52 48
55 61 61 61 61 55 65 61 68 65 58 61 55 55 55 52 52 48 48 61 61 55 58 61 58 65 55 52 39 42 48 42 45 39 42 39 42 39 35 29 39 39 48
61 65 68 68 68 68 71 65 65 65 61 58 65 58 48 55 55 61 52 58 61 58 58 55 55 52 55 61 55 42 42 42 39 45 39 42 48 48 45 45 42 42 39
61 65 68 68 71 71 74 74 71 68 65 61 55 65 61 58 58 42 58 58 58 61 58 55 61 58 42 48 52 45 42 35 42 29 55 48 48 45 45 35 48 45 48
58 65 55 74 74 74 74 74 71 71 65 68 55 65 52 55 58 61 61 61 61 58 55 52 55 52 52 58 61 48 39 39 32 35 42 45 48 55 48 42 48 45 48
55 61 71 74 77 81 77 68 71 68 65 68 65 68 61 58 61 55 61 52 61 58 58 55 48 55 58 55 61 61 58 45 39 39 35 39 48 55 48 39 42 45 48
45 61 68 81 81 81 81 77 81 65 71 68 68 68 68 65 55 48 58 52 55 55 58 58 45 58 58 55 55 52 42 52 39 35 32 35 42 45 52 48 48 52 52
48 61 68 77 81 77 77 81 81 71 71 71 65 68 65 65 58 52 52 58 55 58 55 61 58 55 58 52 48 58 52 45 35 42 42 42 42 42 45 52 58 55 55

GEFSSE_con_cape1000_318.txt.gz
Probability
13 39 61 61 68 68 68 71 71 68 68 61 61 65 58 55 61 58 65 65 68 65 65 61 58 45 48 42 45 48 52 58 61 58 58 55 52 58 55 55 55 39 68
16 42 71 68 65 65 65 71 71 68 65 65 65 61 52 55 61 61 61 65 65 65 61 52 52 48 45 45 45 52 48 52 61 61 55 48 48 48 55 48 42 32 58
16 35 58 65 68 68 77 77 71 71 71 65 61 61 55 58 68 58 68 65 61 65 55 58 52 48 42 48 48 52 52 48 48 45 39 19 42 45 48 48 48 55 55
19 26 48 65 71 74 74 68 61 65 65 65 65 65 58 58 74 61 61 68 61 68 45 55 45 42 52 48 45 42 48 42 42 42 16 13 13 42 48 52 48 48 52
16 23 48 68 71 74 71 68 65 61 61 61 65 52 61 61 61 58 61 61 55 48 48 39 39 32 45 39 39 39 35 32 35 26 6 10 10 39 55 42 45 42 45
19 26 55 68 65 68 68 65 65 61 58 61 58 55 58 58 61 58 61 61 58 52 45 39 42 35 32 32 35 39 35 32 26 10 10 10 10 48 48 39 45 42 35
16 29 52 71 68 68 68 65 61 58 61 58 55 52 48 52 58 58 61 55 55 42 45 42 39 35 35 35 35 39 45 42 19 6 6 10 10 42 48 48 42 35 35
19 26 42 68 65 61 65 65 61 65 61 58 55 55 45 55 55 52 55 52 48 42 42 35 29 39 35 35 39 48 42 45 23 6 6 6 23 39 52 45 45 35 42
16 23 29 42 48 58 61 68 65 68 68 65 55 65 48 52 55 48 52 55 48 42 35 39 29 32 32 32 42 42 39 39 19 10 6 6 35 55 55 45 32 45 45
16 23 26 29 26 23 35 61 61 61 61 55 55 55 52 58 48 55 55 48 48 35 32 39 32 45 42 42 48 45 42 35 13 13 13 16 52 45 48 48 39 45 45
0 3 6 13 6 10 19 42 52 52 48 45 48 55 45 19 23 32 42 48 48 39 39 35 39 45 45 45 48 48 42 23 10 10 10 32 52 45 45 35 45 45 45
0 0 0 3 3 3 13 13 10 16 19 16 10 10 6 6 3 23 42 52 48 35 39 39 48 42 42 23 23 32 19 13 10 3 6 32 52 52 55 39 35 35 39
0 3 0 0 0 3 6 6 10 3 3 6 6 0 0 0 3 6 10 13 16 23 10 13 13 19 23 13 10 0 3 6 3 0 3 42 48 55 48 42 35 39 42
3 0 0 0 0 6 6 3 3 3 3 3 3 3 6 0 0 6 3 0 0 0 0 0 3 3 13 10 6 10 10 10 3 3 6 45 61 65 48 42 39 42 48
3 3 6 6 3 3 6 6 3 3 3 3 3 6 10 6 10 10 3 3 3 0 3 0 3 6 6 10 10 13 6 10 10 3 3 32 55 61 45 45 48 45 45
3 3 3 13 13 13 10 6 6 6 6 6 6 10 3 3 6 6 6 6 3 6 6 3 0 3 10 13 10 10 13 10 10 10 6 23 45 52 58 48 48 42 35
3 3 10 16 13 10 13 16 13 10 10 10 6 6 10 6 10 10 10 13 10 3 10 10 6 10 13 10 10 10 10 10 10 10 16 16 23 32 48 52 52 48 45
3 6 13 19 16 16 16 19 13 10 13 13 6 6 13 13 10 13 19 19 10 13 13 6 13 10 3 6 3 6 6 3 10 10 13 10 16 19 26 39 42 45 45
10 13 13 10 16 16 19 16 19 16 13 10 16 13 13 13 13 13 16 16 10 10 6 13 6 6 10 10 10 6 6 3 6 13 10 10 6 13 13 23 42 42 45
13 16 13 16 19 13 19 19 16 13 10 10 6 13 10 13 13 16 16 16 16 13 3 10 10 13 10 16 13 13 10 6 6 10 6 3 6 6 10 13 16 29 42
13 13 19 23 16 13 19 16 13 13 16 19 13 13 10 10 19 16 19 16 16 16 6 16 16 16 13 13 13 10 6 3 6 0 0 0 0 13 6 6 10 10 23
16 19 26 19 19 23 19 16 13 13 16 13 16 13 16 19 19 19 19 19 19 13 13 16 16 13 19 16 10 10 3 3 0 10 0 3 6 6 10 10 6 10 6
23 26 32 23 19 19 16 13 13 13 16 16 19 16 13 16 19 19 13 19 16 16 16 16 19 16 16 13 16 13 6 3 3 3 10 3 6 3 0 6 6 13 13
23 32 29 32 29 23 19 19 16 13 16 16 16 19 16 16 19 26 26 26 23 19 19 19 19 19 23 19 19 10 10 6 6 6 3 6 6 6 3 6 13 16 16
32 35 35 29 29 32 32 16 19 19 19 23 16 19 23 23 23 26 29 26 23 23 16 19 19 16 23 19 19 19 13 13 10 13 10 6 3 3 3 6 10 16 16
29 35 39 35 32 39 35 26 19 19 23 23 26 19 26 26 16 23 26 23 19 19 19 19 26 26 26 26 23 23 19 10 10 10 6 10 10 6 6 3 6 10 10